St. Thomas, VI

12:41 AM AST on April 23, 2018 (GMT -0400)
King

Weather History for TIST - April, 2014

Change the Weather History Date:

Saturday, April 5, 2014

  Actual Average Record
Temperature  
Mean Temperature 81 °F 80 °F  
Max Temperature 86 °F 87 °F 90 °F (1994)
Min Temperature 76 °F 74 °F 69 °F (1955)
Degree Days  
Heating Degree Days 0 0  
Month to date heating degree days 0 0  
Since 1 July heating degree days 0 0  
Cooling Degree Days 16 15  
Month to date cooling degree days 78 75  
Year to date cooling degree days 1335 1334  
Growing Degree Days 30 (Base 50)    
Moisture  
Dew Point 69 °F    
Average Humidity 71    
Maximum Humidity 87    
Minimum Humidity 55    
Precipitation  
Precipitation 0.00 in 0.07 in 1.28 in (1986)
Month to date precipitation 1.00 0.33  
Year to date precipitation 5.39 5.56  
Sea Level Pressure  
Sea Level Pressure 30.05 in    
Wind  
Wind Speed 13 mph (East)    
Max Wind Speed 21 mph    
Max Gust Speed 30 mph    
Visibility 10 miles    
Events      
T = Trace of Precipitation, MM = Missing Value Source: NWS Daily Summary

Daily Weather History Graph

Daily Weather History Graph

Search for Another Location

Airport or City:

Astronomy

Apr. 05, 2014 Rise Set
Actual Time 6:10 AM AST 6:34 PM AST
Civil Twilight 5:48 AM AST 6:56 PM AST
Nautical Twilight 5:23 AM AST 7:22 PM AST
Astronomical Twilight 4:57 AM AST 7:47 PM AST
Moon 10:43 AM AST (4/5) No Moon Set
Length of Visible Light 13h 07m
Length of Day
12h 23m
Waxing Crescent, 34% of the Moon is Illuminated
Apr 5
Waxing Crescent
Apr 7
First Quarter
Apr 15
Full
Apr 22
Last Quarter
Apr 29
New

Hourly Weather History & Observations

Time (AST) Temp. Heat Index Dew Point Humidity Pressure Visibility Wind Dir Wind Speed Gust Speed Precip Events Conditions
12:53 AM 77.0 °F - 71.1 °F 82% 30.04 in 10.0 mi East 10.4 mph - N/A   Scattered Clouds
1:53 AM 75.9 °F - 70.0 °F 82% 30.03 in 10.0 mi East 8.1 mph - N/A   Partly Cloudy
2:53 AM 77.0 °F - 70.0 °F 79% 30.01 in 10.0 mi East 11.5 mph - N/A   Scattered Clouds
3:53 AM 75.9 °F - 68.0 °F 76% 30.00 in 10.0 mi ENE 10.4 mph - N/A   Clear
4:53 AM 75.9 °F - 68.0 °F 76% 30.01 in 10.0 mi ENE 12.7 mph - N/A   Clear
5:53 AM 75.9 °F - 68.0 °F 76% 30.02 in 10.0 mi East 10.4 mph - N/A   Clear
6:53 AM 77.0 °F - 70.0 °F 79% 30.04 in 10.0 mi East 10.4 mph - N/A   Clear
7:53 AM 80.1 °F 82.9 °F 69.1 °F 69% 30.06 in 10.0 mi East 9.2 mph - N/A   Clear
8:53 AM 81.0 °F 84.1 °F 69.1 °F 67% 30.06 in 10.0 mi East 15.0 mph 24.2 mph N/A   Clear
9:53 AM 82.9 °F 86.5 °F 69.1 °F 63% 30.07 in 10.0 mi East 18.4 mph - N/A   Clear
10:53 AM 84.0 °F 88.4 °F 70.0 °F 63% 30.09 in 10.0 mi East 17.3 mph 27.6 mph N/A   Clear
11:53 AM 84.0 °F 88.4 °F 70.0 °F 63% 30.08 in 10.0 mi East 11.5 mph 24.2 mph N/A   Mostly Cloudy
12:53 PM 84.0 °F 86.5 °F 66.9 °F 56% 30.07 in 10.0 mi ESE 18.4 mph - N/A   Mostly Cloudy
1:53 PM 82.0 °F 85.5 °F 69.1 °F 65% 30.06 in 10.0 mi ESE 12.7 mph - N/A   Overcast
2:53 PM 82.9 °F 85.8 °F 68.0 °F 60% 30.04 in 10.0 mi ENE 15.0 mph - N/A   Mostly Cloudy
4:53 PM 82.0 °F 85.5 °F 69.1 °F 65% 30.01 in 10.0 mi East 16.1 mph - N/A   Partly Cloudy
5:53 PM 80.1 °F 82.9 °F 69.1 °F 69% 30.01 in 10.0 mi East 16.1 mph 21.9 mph N/A   Mostly Cloudy
6:53 PM 78.1 °F - 69.1 °F 74% 30.03 in 10.0 mi East 15.0 mph - N/A   Clear
7:53 PM 78.1 °F - 70.0 °F 76% 30.04 in 10.0 mi East 10.4 mph - N/A   Partly Cloudy
8:53 PM 78.1 °F - 71.1 °F 79% 30.06 in 10.0 mi East 13.8 mph - N/A   Mostly Cloudy
9:53 PM 78.1 °F - 70.0 °F 76% 30.09 in 10.0 mi East 9.2 mph - N/A   Clear
10:53 PM 77.0 °F - 71.1 °F 82% 30.09 in 10.0 mi East 8.1 mph - N/A   Clear
11:53 PM 78.1 °F - 70.0 °F 76% 30.07 in 10.0 mi East 11.5 mph - N/A   Partly Cloudy